Meteorología y climatología de Navarra
Datos de la estación - Meteo Navarra

Estación de Goizueta GN

Altitud 142 m.


Datos desde el 23/05/2020 hasta el 24/05/2020 en horario solar
Los datos son PROVISIONALES

Anterior Página 1 de 1 Siguiente Descargar: Formato para Excel 2000 o superior   Formato csv   Formato para OpenOffice Calc
Fecha Temperatura Humedad relativa Radiación global Insolación Precipitación Vel. viento 10 m Vel. viento 10 m Dir. viento 10 m
ºC % W/m² s l/m² m/s km/h º
23/05/2020 0:00 15.9 98 - - - - 0.0 - - - - - -
23/05/2020 0:10 15.9 98 - - - - 0.0 - - - - - -
23/05/2020 0:20 15.9 98 - - - - 0.0 - - - - - -
23/05/2020 0:30 15.9 98 - - - - 0.1 - - - - - -
23/05/2020 0:40 15.9 98 - - - - 0.0 - - - - - -
23/05/2020 0:50 15.9 99 - - - - 0.0 - - - - - -
23/05/2020 1:00 15.8 98 - - - - 0.1 - - - - - -
23/05/2020 1:10 15.9 99 - - - - 0.0 - - - - - -
23/05/2020 1:20 15.8 98 - - - - 0.0 - - - - - -
23/05/2020 1:30 15.7 98 - - - - 0.1 - - - - - -
23/05/2020 1:40 15.7 99 - - - - 0.0 - - - - - -
23/05/2020 1:50 15.7 99 - - - - 0.1 - - - - - -
23/05/2020 2:00 15.8 99 - - - - 0.0 - - - - - -
23/05/2020 2:10 15.8 99 - - - - 0.1 - - - - - -
23/05/2020 2:20 15.8 99 - - - - 0.1 - - - - - -
23/05/2020 2:30 15.9 99 - - - - 0.1 - - - - - -
23/05/2020 2:40 15.9 99 - - - - 0.1 - - - - - -
23/05/2020 2:50 15.9 99 - - - - 0.1 - - - - - -
23/05/2020 3:00 15.8 99 - - - - 0.1 - - - - - -
23/05/2020 3:10 15.7 99 - - - - 0.1 - - - - - -
23/05/2020 3:20 15.8 99 - - - - 0.0 - - - - - -
23/05/2020 3:30 15.8 99 - - - - 0.0 - - - - - -
23/05/2020 3:40 15.8 99 - - - - 0.1 - - - - - -
23/05/2020 3:50 15.7 99 - - - - 0.1 - - - - - -
23/05/2020 4:00 15.7 99 - - - - 0.1 - - - - - -
23/05/2020 4:10 15.7 99 - - - - 0.0 - - - - - -
23/05/2020 4:20 15.7 99 - - - - 0.0 - - - - - -
23/05/2020 4:30 15.8 99 - - - - 0.0 - - - - - -
23/05/2020 4:40 15.7 99 - - - - 0.0 - - - - - -
23/05/2020 4:50 15.7 99 - - - - 0.1 - - - - - -
23/05/2020 5:00 15.7 99 - - - - 0.0 - - - - - -
23/05/2020 5:10 15.7 99 - - - - 0.0 - - - - - -
23/05/2020 5:20 15.8 99 - - - - 0.0 - - - - - -
23/05/2020 5:30 15.8 99 - - - - 0.0 - - - - - -
23/05/2020 5:40 15.8 99 - - - - 0.1 - - - - - -
23/05/2020 5:50 15.9 99 - - - - 0.0 - - - - - -
23/05/2020 6:00 15.9 99 - - - - 0.0 - - - - - -
23/05/2020 6:10 15.9 99 - - - - 0.0 - - - - - -
23/05/2020 6:20 15.9 99 - - - - 0.0 - - - - - -
23/05/2020 6:30 15.9 99 - - - - 0.0 - - - - - -
23/05/2020 6:40 16.1 99 - - - - 0.0 - - - - - -
23/05/2020 6:50 16.1 98 - - - - 0.1 - - - - - -
23/05/2020 7:00 16.1 98 - - - - 0.1 - - - - - -
23/05/2020 7:10 16.1 98 - - - - 0.1 - - - - - -
23/05/2020 7:20 16.2 97 - - - - 0.2 - - - - - -
23/05/2020 7:30 16.3 97 - - - - 0.2 - - - - - -
23/05/2020 7:40 16.3 97 - - - - 0.2 - - - - - -
23/05/2020 7:50 16.2 97 - - - - 0.2 - - - - - -
23/05/2020 8:00 16.1 94 - - - - 0.1 - - - - - -
23/05/2020 8:10 16.0 93 - - - - 0.0 - - - - - -
23/05/2020 8:20 15.9 93 - - - - 0.0 - - - - - -
23/05/2020 8:30 15.6 93 - - - - 0.1 - - - - - -
23/05/2020 8:40 15.3 93 - - - - 0.0 - - - - - -
23/05/2020 8:50 15.1 92 - - - - 0.0 - - - - - -
23/05/2020 9:00 15.0 93 - - - - 0.0 - - - - - -
23/05/2020 9:10 14.8 93 - - - - 0.0 - - - - - -
23/05/2020 9:20 14.8 94 - - - - 0.0 - - - - - -
23/05/2020 9:30 14.7 93 - - - - 0.2 - - - - - -
23/05/2020 9:40 14.8 94 - - - - 0.3 - - - - - -
23/05/2020 9:50 14.8 95 - - - - 0.4 - - - - - -
23/05/2020 10:00 14.4 93 - - - - 0.2 - - - - - -
23/05/2020 10:10 14.3 93 - - - - 0.1 - - - - - -
23/05/2020 10:20 14.2 92 - - - - 0.0 - - - - - -
23/05/2020 10:30 14.1 94 - - - - 0.0 - - - - - -
23/05/2020 10:40 14.4 94 - - - - 0.0 - - - - - -
23/05/2020 10:50 14.4 92 - - - - 0.0 - - - - - -
23/05/2020 11:00 14.6 92 - - - - 0.0 - - - - - -
23/05/2020 11:10 14.6 91 - - - - 0.0 - - - - - -
23/05/2020 11:20 14.8 91 - - - - 0.0 - - - - - -
23/05/2020 11:30 14.9 90 - - - - 0.0 - - - - - -
23/05/2020 11:40 15.0 91 - - - - 0.0 - - - - - -
23/05/2020 11:50 14.6 92 - - - - 0.1 - - - - - -
23/05/2020 12:00 13.8 89 - - - - 0.0 - - - - - -
23/05/2020 12:10 13.7 86 - - - - 0.0 - - - - - -
23/05/2020 12:20 14.0 85 - - - - 0.0 - - - - - -
23/05/2020 12:30 14.4 86 - - - - 0.0 - - - - - -
23/05/2020 12:40 14.6 84 - - - - 0.0 - - - - - -
23/05/2020 12:50 14.7 82 - - - - 0.0 - - - - - -
23/05/2020 13:00 15.0 81 - - - - 0.0 - - - - - -
23/05/2020 13:10 15.0 81 - - - - 0.0 - - - - - -
23/05/2020 13:20 15.2 81 - - - - 0.0 - - - - - -
23/05/2020 13:30 15.3 78 - - - - 0.0 - - - - - -
23/05/2020 13:40 15.1 79 - - - - 0.0 - - - - - -
23/05/2020 13:50 15.1 81 - - - - 0.0 - - - - - -
23/05/2020 14:00 15.1 80 - - - - 0.0 - - - - - -
23/05/2020 14:10 15.5 77 - - - - 0.0 - - - - - -
23/05/2020 14:20 15.6 76 - - - - 0.0 - - - - - -
23/05/2020 14:30 15.9 77 - - - - 0.0 - - - - - -
23/05/2020 14:40 16.1 75 - - - - 0.0 - - - - - -
23/05/2020 14:50 16.2 75 - - - - 0.0 - - - - - -
23/05/2020 15:00 16.1 76 - - - - 0.0 - - - - - -
23/05/2020 15:10 16.0 77 - - - - 0.0 - - - - - -
23/05/2020 15:20 15.9 78 - - - - 0.0 - - - - - -
23/05/2020 15:30 15.9 78 - - - - 0.0 - - - - - -
23/05/2020 15:40 15.9 78 - - - - 0.0 - - - - - -
23/05/2020 15:50 16.2 77 - - - - 0.0 - - - - - -
23/05/2020 16:00 16.2 75 - - - - 0.0 - - - - - -
23/05/2020 16:10 16.2 72 - - - - 0.0 - - - - - -
23/05/2020 16:20 17.0 70 - - - - 0.0 - - - - - -
23/05/2020 16:30 16.9 69 - - - - 0.0 - - - - - -
23/05/2020 16:40 16.8 69 - - - - 0.0 - - - - - -
23/05/2020 16:50 17.4 67 - - - - 0.0 - - - - - -
23/05/2020 17:00 17.2 67 - - - - 0.0 - - - - - -
23/05/2020 17:10 16.6 69 - - - - 0.0 - - - - - -
23/05/2020 17:20 16.4 67 - - - - 0.0 - - - - - -
23/05/2020 17:30 16.2 68 - - - - 0.0 - - - - - -
23/05/2020 17:40 15.7 70 - - - - 0.0 - - - - - -
23/05/2020 17:50 15.4 71 - - - - 0.0 - - - - - -
23/05/2020 18:00 15.1 71 - - - - 0.0 - - - - - -
23/05/2020 18:10 14.8 73 - - - - 0.0 - - - - - -
23/05/2020 18:20 14.4 77 - - - - 0.0 - - - - - -
23/05/2020 18:30 14.0 83 - - - - 0.0 - - - - - -
23/05/2020 18:40 13.6 87 - - - - 0.0 - - - - - -
23/05/2020 18:50 13.5 89 - - - - 0.0 - - - - - -
23/05/2020 19:00 13.5 89 - - - - 0.0 - - - - - -
23/05/2020 19:10 13.4 90 - - - - 0.0 - - - - - -
23/05/2020 19:20 13.4 91 - - - - 0.0 - - - - - -
23/05/2020 19:30 13.3 92 - - - - 0.0 - - - - - -
23/05/2020 19:40 13.3 91 - - - - 0.0 - - - - - -
23/05/2020 19:50 13.2 93 - - - - 0.0 - - - - - -
23/05/2020 20:00 13.1 94 - - - - 0.0 - - - - - -
23/05/2020 20:10 13.0 94 - - - - 0.0 - - - - - -
23/05/2020 20:20 13.0 94 - - - - 0.0 - - - - - -
23/05/2020 20:30 13.1 94 - - - - 0.0 - - - - - -
23/05/2020 20:40 13.1 95 - - - - 0.0 - - - - - -
23/05/2020 20:50 13.1 95 - - - - 0.0 - - - - - -
23/05/2020 21:00 13.1 95 - - - - 0.0 - - - - - -
23/05/2020 21:10 13.1 95 - - - - 0.0 - - - - - -
23/05/2020 21:20 13.0 96 - - - - 0.0 - - - - - -
23/05/2020 21:30 12.8 96 - - - - 0.0 - - - - - -
23/05/2020 21:40 12.6 97 - - - - 0.0 - - - - - -
23/05/2020 21:50 12.5 97 - - - - 0.0 - - - - - -
23/05/2020 22:00 12.4 97 - - - - 0.0 - - - - - -
23/05/2020 22:10 12.3 98 - - - - 0.0 - - - - - -
23/05/2020 22:20 12.2 98 - - - - 0.0 - - - - - -
23/05/2020 22:30 12.0 98 - - - - 0.0 - - - - - -
23/05/2020 22:40 11.7 98 - - - - 0.0 - - - - - -
23/05/2020 22:50 11.2 98 - - - - 0.0 - - - - - -
23/05/2020 23:00 10.9 98 - - - - 0.0 - - - - - -
23/05/2020 23:10 10.8 98 - - - - 0.0 - - - - - -
23/05/2020 23:20 10.7 99 - - - - 0.0 - - - - - -
23/05/2020 23:30 10.5 99 - - - - 0.0 - - - - - -
23/05/2020 23:40 10.4 99 - - - - 0.0 - - - - - -
23/05/2020 23:50 10.1 99 - - - - 0.0 - - - - - -
Anterior Página 1 de 1 Siguiente

NOTA: Tipo de datos según el color:
   - Valores diarios o 10 minutos correctos
   - Valores diarios calculados a partir de un número de datos 10 minutos menor que 144 y mayor que 120, o de un número de datos semihorarios menor que 48 y mayor que 40 (caso de las estaciones de INTIA y del Ministerio)
   - Valores diez minutos estimados


Contacto        Enlaces        Aviso legal